Regional Weather Roundup
Issued by NWS

Home | Current Version | Previous Version | Graphics & Text | Print | Product List | Glossary On
Versions: 1 2 3 4 5 6 7 8 9 10 11 12 13 14 15 16 17 18 19 20 21 22 23 24 25 26 27 28 29 30 31 32 33 34 35 36 37 38 39 40 41 42 43 44 45 46 47 48 49
000
ASUS45 KSLC 261310
RWRUT

UTAH REGIONAL WEATHER ROUNDUP
NATIONAL WEATHER SERVICE SALT LAKE CITY UT
700 AM MDT THU MAR 26 2015

UTZ001>011-023>025-261400-

NORTHERN UTAH

CITY           SKY/WX    TMP DP  RH WIND       PRES   REMARKS
BRIGHAM CITY   CLEAR     32  28  84 CALM      30.40S
HILL AFB       PTCLDY    36  20  52 NE2       30.39R
LOGAN          CLEAR     29  26  89 N7        30.40R WCI  22
OGDEN          PTCLDY    34  21  59 S5        30.39R WCI  30
PROVO AIRPORT  MOCLDY    28  19  69 CALM      30.41S
SALT LAKE CITY PTCLDY    35  22  58 SE7       30.39S WCI  29
VERNAL         PTCLDY    27  15  61 W5        30.36S WCI  22
WENDOVER       CLEAR     41  19  42 NW3       30.39F
HEBER CITY     PTCLDY    23  18  80 CALM      30.41F
WEST JORDAN    CLEAR     34  21  60 SW5       30.40R WCI  30

$$

UTZ012>022-026-027-261400-

SOUTHERN/CENTRAL UTAH

CITY           SKY/WX    TMP DP  RH WIND       PRES   REMARKS
BLANDING       PTCLDY    29  14  53 NW6       30.38R WCI  23
BRYCE CANYON   PTCLDY    20  14  77 W7        30.40R WCI  11
CEDAR CITY     PTCLDY    26  13  57 CALM      30.38R
DELTA          MOCLDY    28  15  56 CALM      30.40S
HANKSVILLE     CLEAR     27  12  54 E3        30.36R
MILFORD        PTCLDY    25   7  46 W5        30.39S WCI  19
MOAB/CYNLANDS  CLEAR     33  11  39 CALM      30.33R
PRICE          CLEAR     36  16  44 NW12      30.34R WCI  28
ST GEORGE      MOSUNNY   48  12  23 SE3       30.31S
KANAB          PTCLDY    41  10  28 N9        30.37R

$$

REGIONAL REPORTS     COLORADO/ARIZONA

CITY           SKY/WX    TMP DP  RH WIND       PRES   REMARKS
CRAIG, CO      PTCLDY    20  17  88 SE3       30.39S
GRAND JUNCTION CLEAR     30  18  60 SE10      30.37R WCI  21
RIFLE          CLEAR     23  15  71 S5        30.41R WCI  17
MONTROSE       CLEAR     26  16  65 SE7       30.39R WCI  18
CORTEZ         CLEAR     23  12  62 E9        30.30S WCI  13
PAGE, AZ       NOT AVBL
GRAND CANYON   PTCLDY    33  12  41 CALM      30.34R
KINGMAN        PTCLDY    43  18  36 E9        30.23R
FLAGSTAFF      PTCLDY    38   5  25 E7        30.31R WCI  33

$$

REGIONAL REPORTS    NEVADA/IDAHO/WYOMING

CITY           SKY/WX    TMP DP  RH WIND       PRES   REMARKS
LAS VEGAS, NV  PTCLDY    59  19  21 NW3       30.20S
ELY            PTCLDY    24  15  68 S10       30.42R WCI  14
ELKO           MOCLDY    30  25  81 CALM      30.40S
POCATELLO, ID  PTCLDY    37  32  82 SW10      30.40F WCI  30
BURLEY         PTCLDY    30  26  85 SW6       30.39R WCI  24
EVANSTON, WY   PTCLDY    27  18  69 S7        30.38S WCI  19
ROCK SPRINGS   PTCLDY    29  19  66 W22       30.32F WCI  15

$$



USA.gov is the U.S. government's official web portal to all federal, state and local government web resources and services.